IRIDIUM 10 [-]

Last updated on Fri Oct 05 2018 06:13:29 GMT+0000 (Coordinated Universal Time)

1 24839U 97030D 18278.07180852 .05902560 -16488-5 44517-3 0 9996 2 24839 86.3682 149.7802 0107724 106.7889 254.4080 16.21114689115269

Satellite not in orbit